Location: Newark
(49.8969°N, 3.3422°E)
Time: 11:41:32
(UTC+00:00)

A-11 Canister half - Pass Details

Date: 31 January 2020
Orbit: 1517 x 1683 km, 47.2° (Epoch: 24 February)

Event Time Altitude Azimuth Distance (km) Brightness Sun altitude
Rises 04:41:31 0° 288° (WNW) 4,675 - -25.9°
Reaches altitude 10° 04:45:07 10° 277° (W) 3,683 - -25.3°
Exits shadow 04:52:10 27° 227° (SW) 2,579 9.8 -24.2°
Maximum altitude 04:52:25 27° 224° (SW) 2,578 9.8 -24.1°
Drops below altitude 10° 04:59:45 10° 171° (S) 3,694 11.1 -22.9°
Sets 05:03:24 0° 160° (SSE) 4,691 11.8 -22.4°
